Accueil
METAR-TAF:

METAR-TAF

Aéroports :

Ponape, Micronésie

NWS Office

latitude: 06-58N, longitude: 158-13E, altitude: 39 m

Observation

Le bulletin a été fait il y a 56 minutes, à 07:52 UTC
Vent 6 kt de est/nord-est avec des rafales jusqu'à 16 kt
Température 28°C
Humidité 79%
Pression 1008 hPa
Visibilité: 24.1 km
Nuages fragmentés à une hauteur de 1800 ft
Ciel couvert à une hauteur de 30000 ft

METAR: PTTP 200752Z 06006G16KT 15SM BKN018 OVC300 28/24 A2976 RMK SLP078 T02810238

Heure: 19:48 (08:48 UTC)


TAF: absent

Observations et prévisions météorologiques de plus de 4000 aéroports (messages METAR et TAF).

Les stations disponibles sont représentées par des disques jaunes et rouges sur la carte.

Passer la souris dessus pour voir le nom de la station.

Cliquer dessus pour voir les observations et prévisions météorologiques.

Pour changer de carte: cliquez sur les boutons verts avec une croix noire pour zoomer, sur le bouton vert avec un tiret pour effectuer un zoom arrière, ou sur les flèches vertes pour les cartes adjacentes.


METAR-TAF: